Bei Facebook empfehlenBei Twitter postenGoogle plusPinterest

Das Wetter im Erzgebirge am 31.12.2015

Wetter und Klima am 31.12.2015 Holzhau im Erzgebirge (630m ü.NN)
Letzte gemessene Temperatur und Uhrzeit der Messung23:45:00 Uhr-2.10 °C
Temperatur (Maximum / Höchstwert) und Uhrzeit der Messung23:45:00 Uhr-2.10 °C
Temperatur (Minimum / Tiefstwert) und Uhrzeit der Messung08:30:00-7.00 °C
Errechneter Absolutwert der Temperaturschwankungen zwischen Tmin und Tmax des Tages4.90 K
Errechnete Tagesmitteltemperatur-4.23958 °C
Gesamt - Niederschlag des Tages (in flüssiger Form)0.00 Liter / m²
Luftdruck (Maximum / Höchstwert) und Zeitpunkt der Messung19:30:00 Uhr1021.10 hPa
Luftdruck (Minimum / Tiefstwert) und Zeitpunkt der Messung06:15:00 Uhr1018.30 hPa
Errechneter Absolutwert der Luftdruckschwankungen des Tages2.80 hPa
Höchste gemessene Windgeschwindigkeit und Uhrzeit der Messung01:00:00 Uhr27.72 km/h
Errechnete Windhäufigkeit in Relation zu den Messwerten des Tages56.25000 %
Niedrigste Windkühle (Windchill) und Zeitpunkt der Messung06:30:00 Uhr-13.70 °C
Taupunkt (Maximum / Höchstwert) und Uhrzeit der Messung23:45:00 Uhr-4.00 °C
Taupunkt (Minimum / Tiefstwert) und Uhrzeit der Messung08:15:00-11.00 °C
Anzahl der automatisch eingelesenen Messwerte 96

Detaillierte Wetter- und Klima- Messwerte für den 31.12.2015 in Holzhau im Erzgebirge (630m ü.NN)
ZeitTemperaturLuftdruckRel. LuftfeuchteWindWindrichtungWindchillTaupunktNiederschlag l/m²
23:45:00-2.10 °C1020.50 hPa88.00 %-4.00 °C 
23:30:00-2.20 °C1020.40 hPa88.00 %-4.10 °C 
23:15:00-2.20 °C1020.40 hPa87.00 %-4.30 °C 
23:00:00-2.40 °C1020.30 hPa87.00 %-4.50 °C 
22:45:00-2.40 °C1020.20 hPa87.00 %1.80 km/hOSO-2.40 °C-4.50 °C 
22:30:00-2.60 °C1020.20 hPa86.00 %-4.90 °C 
22:15:00-2.60 °C1020.20 hPa86.00 %-4.90 °C 
22:00:00-2.70 °C1020.30 hPa86.00 %-5.00 °C 
21:45:00-2.90 °C1020.40 hPa85.00 %-5.30 °C 
21:30:00-3.00 °C1020.30 hPa85.00 %5.76 km/hO-5.40 °C-5.40 °C 
21:15:00-3.10 °C1020.40 hPa84.00 %-5.70 °C 
21:00:00-3.30 °C1020.60 hPa84.00 %-5.90 °C 
20:45:00-3.50 °C1020.70 hPa83.00 %2.52 km/hOSO-3.50 °C-6.30 °C 
20:30:00-3.60 °C1020.70 hPa82.00 %-6.50 °C 
20:15:00-3.70 °C1020.70 hPa82.00 %-6.60 °C 
20:00:00-3.80 °C1020.80 hPa81.00 %-6.90 °C 
19:45:00-3.90 °C1021.00 hPa80.00 %-7.20 °C 
19:30:00-3.90 °C1021.10 hPa79.00 %-7.40 °C 
19:15:00-3.70 °C1021.10 hPa78.00 %-7.40 °C 
19:00:00-3.60 °C1021.00 hPa77.00 %-7.50 °C 
18:45:00-3.60 °C1021.10 hPa76.00 %4.68 km/hNO-3.60 °C-7.60 °C 
18:30:00-3.60 °C1021.10 hPa76.00 %-7.60 °C 
18:15:00-3.50 °C1020.90 hPa75.00 %-7.70 °C 
18:00:00-3.60 °C1021.10 hPa75.00 %-7.80 °C 
17:45:00-3.60 °C1021.10 hPa75.00 %-7.80 °C 
17:30:00-3.70 °C1020.90 hPa75.00 %-7.90 °C 
17:15:00-3.80 °C1020.80 hPa75.00 %-8.00 °C 
17:00:00-3.90 °C1020.80 hPa75.00 %-8.10 °C 
16:45:00-4.10 °C1020.60 hPa74.00 %4.68 km/hSO-4.10 °C-8.50 °C 
16:30:00-4.10 °C1020.40 hPa74.00 %3.60 km/hOSO-4.10 °C-8.50 °C 
16:15:00-4.20 °C1020.30 hPa74.00 %-8.60 °C 
16:00:00-4.20 °C1020.20 hPa73.00 %-8.80 °C 
15:45:00-4.10 °C1020.20 hPa73.00 %-8.70 °C 
15:30:00-4.10 °C1020.40 hPa72.00 %9.72 km/hOSO-8.10 °C-8.90 °C 
15:15:00-4.10 °C1020.40 hPa71.00 %-9.10 °C 
15:00:00-3.90 °C1020.40 hPa70.00 %7.56 km/hNO-7.20 °C-9.10 °C 
14:45:00-3.60 °C1020.60 hPa68.00 %10.44 km/hNO-7.70 °C-9.20 °C 
14:30:00-2.90 °C1020.30 hPa68.00 %2.52 km/hSO-2.90 °C-8.60 °C 
14:15:00-2.20 °C1020.40 hPa67.00 %-8.10 °C 
14:00:00-2.10 °C1020.40 hPa67.00 %5.76 km/hOSO-4.30 °C-8.00 °C 
13:45:00-2.20 °C1020.30 hPa67.00 %3.24 km/hNO-2.20 °C-8.10 °C 
13:30:00-2.40 °C1020.20 hPa67.00 %8.64 km/hO-5.80 °C-8.30 °C 
13:15:00-2.40 °C1019.90 hPa67.00 %-8.30 °C 
13:00:00-2.50 °C1019.80 hPa67.00 %11.16 km/hOSO-6.60 °C-8.40 °C 
12:45:00-2.50 °C1019.80 hPa68.00 %5.40 km/hONO-4.60 °C-8.20 °C 
12:30:00-2.70 °C1020.00 hPa68.00 %-8.40 °C 
12:15:00-2.90 °C1020.10 hPa68.00 %-8.60 °C 
12:00:00-2.90 °C1020.30 hPa68.00 %22.68 km/hSO-9.30 °C-8.60 °C 
11:45:00-3.10 °C1020.20 hPa69.00 %3.24 km/hOSO-3.10 °C-8.60 °C 
11:30:00-2.80 °C1020.30 hPa70.00 %3.24 km/hSO-2.80 °C-8.10 °C 
11:15:00-3.10 °C1020.40 hPa71.00 %6.84 km/hSO-5.90 °C-8.10 °C 
11:00:00-3.50 °C1020.30 hPa72.00 %-8.30 °C 
10:45:00-3.60 °C1020.40 hPa72.00 %-8.40 °C 
10:30:00-3.90 °C1020.40 hPa74.00 %-8.30 °C 
10:15:00-4.40 °C1020.40 hPa74.00 %-8.80 °C 
10:00:00-5.10 °C1020.20 hPa74.00 %-9.50 °C 
09:45:00-5.60 °C1020.30 hPa75.00 %-9.80 °C 
09:30:00-6.00 °C1019.90 hPa75.00 %9.72 km/hSO-10.40 °C-10.20 °C 
09:15:00-6.20 °C1019.80 hPa75.00 %17.28 km/hSO-12.50 °C-10.40 °C 
09:00:00-6.50 °C1019.50 hPa76.00 %2.16 km/hO-6.50 °C-10.50 °C 
08:45:00-6.80 °C1019.40 hPa76.00 %10.08 km/hONO-11.50 °C-10.70 °C 
08:30:00-7.00 °C1019.00 hPa76.00 %10.44 km/hSSO-11.80 °C-10.90 °C 
08:15:00-6.90 °C1019.20 hPa75.00 %17.28 km/hONO-13.40 °C-11.00 °C 
08:00:00-6.70 °C1018.90 hPa74.00 %12.96 km/hONO-12.20 °C-11.00 °C 
07:45:00-6.60 °C1019.60 hPa74.00 %15.84 km/hNO-12.70 °C-10.90 °C 
07:30:00-6.70 °C1019.50 hPa75.00 %-10.80 °C 
07:15:00-6.70 °C1018.80 hPa75.00 %-10.80 °C 
07:00:00-6.50 °C1018.60 hPa74.00 %9.36 km/hOSO-10.90 °C-10.80 °C 
06:45:00-6.40 °C1018.40 hPa75.00 %12.24 km/hONO-11.60 °C-10.50 °C 
06:30:00-6.40 °C1018.40 hPa74.00 %21.96 km/hOSO-13.70 °C-10.70 °C 
06:15:00-6.20 °C1018.30 hPa74.00 %20.52 km/hOSO-13.20 °C-10.50 °C 
06:00:00-6.10 °C1018.30 hPa74.00 %12.24 km/hO-11.30 °C-10.40 °C 
05:45:00-5.90 °C1018.40 hPa74.00 %0.72 km/hSO-5.90 °C-10.30 °C 
05:30:00-5.90 °C1018.60 hPa74.00 %16.56 km/hSO-12.00 °C-10.30 °C 
05:15:00-5.80 °C1018.40 hPa73.00 %-10.30 °C 
05:00:00-5.70 °C1018.60 hPa74.00 %10.80 km/hSO-10.40 °C-10.10 °C 
04:45:00-5.70 °C1018.70 hPa74.00 %-10.10 °C 
04:30:00-5.70 °C1018.80 hPa74.00 %9.36 km/hSO-9.90 °C-10.10 °C 
04:15:00-5.60 °C1018.60 hPa74.00 %15.84 km/hSO-11.50 °C-10.00 °C 
04:00:00-5.50 °C1018.80 hPa73.00 %11.88 km/hONO-10.40 °C-10.10 °C 
03:45:00-5.40 °C1018.70 hPa73.00 %17.28 km/hO-11.60 °C-10.00 °C 
03:30:00-5.20 °C1018.90 hPa72.00 %6.48 km/hN-8.20 °C-10.00 °C 
03:15:00-5.10 °C1019.10 hPa72.00 %24.48 km/hSSO-12.40 °C-9.90 °C 
03:00:00-5.00 °C1019.00 hPa71.00 %7.56 km/hOSO-8.40 °C-10.00 °C 
02:45:00-4.90 °C1019.50 hPa71.00 %10.44 km/hOSO-9.30 °C-9.90 °C 
02:30:00-4.80 °C1019.50 hPa71.00 %7.92 km/hSO-8.30 °C-9.80 °C 
02:15:00-4.80 °C1019.60 hPa71.00 %3.96 km/hO-4.80 °C-9.80 °C 
02:00:00-4.80 °C1019.60 hPa71.00 %21.24 km/hSO-11.50 °C-9.80 °C 
01:45:00-4.60 °C1019.70 hPa71.00 %21.60 km/hOSO-11.30 °C-9.60 °C 
01:30:00-4.40 °C1019.80 hPa71.00 %8.64 km/hOSO-8.10 °C-9.40 °C 
01:15:00-4.20 °C1020.10 hPa71.00 %7.92 km/hSO-7.60 °C-9.20 °C 
01:00:00-4.20 °C1020.20 hPa73.00 %27.72 km/hOSO-11.70 °C-8.80 °C 
00:45:00-4.20 °C1020.30 hPa74.00 %15.84 km/hO-9.80 °C-8.60 °C 
00:30:00-4.10 °C1020.60 hPa75.00 %11.16 km/hONO-8.50 °C-8.30 °C 
00:15:00-4.10 °C1020.70 hPa77.00 %21.60 km/hSO-10.70 °C-7.90 °C 
00:00:00-4.00 °C1020.80 hPa78.00 %3.24 km/hOSO-4.00 °C-7.70 °C 

Permanenter Link zu dieser Seite: Wetter im Erzgebirge am 31.12.2015
Performance-Info: Die Erstellung der Seite / Statistik(en) / Tabelle(n) erforderte 5 Datenbankserver-Abfrage(n) und dauerte 101 Millisekunden. (Dieser Messwert ist von der Gesamt-Auslastung des Servers abhängig.)
Erzgebirge - Wetter | Erzgebirge - Wetter (Mobilgeräte) | Komplette Klimadatenbank